KISMKEYW

Guest
Details From KISM - Kissimmee Gateway
To KEYW - Key West Intl
Flight Number -
Tags Generated
Created
Modified
Stats Distance 225 nm / 416 km
Max Altitude 0 ft / 0 m
Waypoints 3
Social Downloads 0
Likes 0
Share VATSIM

Download

Looking for another format? Having issues loading an existing format? Contact us
Advertisement - Login to hide

Notes

Generated

Route

KISM MACIV KEYW

ID Type Via Altitude Latitude Longitude Leg Dist Tot Dist Heading (true) Name
O KISM APT - 0 ft / 0 m 28.28684˚ -81.44405˚ - 0 nm - Kissimmee Gateway
MACIV FIX - 0 ft / 0 m 24.55597˚ -81.76669˚ 224 nm 224 nm 185° / 184° -
O KEYW APT - 0 ft / 0 m 24.55605˚ -81.76677˚ 0 nm 224 nm 321° / 321° -

Altitude Profile

Advertisement - Login to hide

Weather


0- 5 10 15 20 25 30 35+ Temperature / ° C

Clouds and Precipitation
Forecast for 2017-12-16 06:00 UTC. Updated 39 minutes ago

Ground ~20,000 ft ~40,000 ft Winds

KISM

Details ICAO KISM (ISM)
Name Kissimmee Gateway
Region United States
Timezone America/New_York (UTC-5.0)
Stats Elevation 82 ft / 25 m (AMSL)
Location 28.289863° -81.437113°
Runways 2
Magnetic Variation 6.299° W

METAR

KISM 160456Z AUTO 00000KT 10SM CLR 13/11 A3018 RMK AO2 SLP223 T01330111 402500133

Decode

TAF

KISM 160521Z 1606/1706 VRB04KT P6SM FEW250 FM161500 03007KT P6SM SCT040 SCT250 FM170000 05004KT P6SM FEW040 SCT250

Decode

Departure Runways

ID Width Length Bearing (true) Bearing (mag) Surface Threshold Offset Overrun Length
06 150 ft / 46 m 5,000 ft / 1,524 m 57.93° 64.23° Asphalt 0 ft / 0 m 0 ft / 0 m
15 100 ft / 30 m 6,012 ft / 1,833 m 148.21° 154.51° Asphalt 500 ft / 152 m 0 ft / 0 m
24 150 ft / 46 m 5,000 ft / 1,524 m 237.93° 244.23° Asphalt 0 ft / 0 m 485 ft / 148 m
33 100 ft / 30 m 6,012 ft / 1,833 m 328.22° 334.52° Asphalt 0 ft / 0 m 0 ft / 0 m

KEYW

Details ICAO KEYW (EYW)
Name Key West Intl
Region United States
Timezone America/New_York (UTC-5.0)
Stats Elevation 2 ft / 1 m (AMSL)
Location 24.556124° -81.759546°
Runways 1
Magnetic Variation 5.545° W

METAR

KEYW 160453Z AUTO 04003KT 10SM CLR 19/17 A3017 RMK AO2 SLP215 T01890167 402560150

Decode

TAF

KEYW 160521Z 1606/1706 04005KT P6SM SKC FM161500 06010KT P6SM FEW250 FM161800 07011KT P6SM FEW028 SCT250 FM162100 08011KT P6SM SCT028 BKN250

Decode

Destination Runways

ID Width Length Bearing (true) Bearing (mag) Surface Threshold Offset Overrun Length
09 100 ft / 30 m 4,794 ft / 1,461 m 89.38° 94.93° Asphalt 151 ft / 46 m 0 ft / 0 m
27 100 ft / 30 m 4,794 ft / 1,461 m 269.39° 274.94° Asphalt 151 ft / 46 m 0 ft / 0 m

Popular Alternatives